UNISAT 3

Last updated on Nov. 11, 2016, 5:19 p.m. UTC

1 28373U 04025H   16316.42369130  .00000106  00000-0  41600-4 0  9991
2 28373  98.3112 256.6044 0069568 150.0474 210.4726 14.45346467652448
UTC
Height (km)
Latitude
Longitude
Inclination
Orbital Period
UTC large
Height (km)
Speed (km/s)
/
Latitude / Longitude
Inclination (degrees)
Orbital Period (minutes)
Azimuth
Elevation
Range (km)
Doppler Factor
iOS Compass Heading
iOS Angle